ARIANE 44LP DEB, 26812

Orbit data source: Space-Track

ARIANE 44LP DEB, 26812 is space debris in HEO originally from a launch on Sun, 11 Dec 1988 UTC launched from the French Guiana (FRGUI). Debris objects in space refer to the collection of defunct objects orbiting the Earth. Examples of debris include non-operational satellites, rocket bodies, and fragments generated from explosions, collisions, or faulty payload assembly.

Loading next visibility...
Identifier
26812, 1988-109P
Orbit
HEO
Country
Flag of FRFR
Related business
Manufacturer
Unknown
Mission
Spacecraft
Bus & Motor
Unknown
Mass
Unknown
Launch date (UTC)
1988-12-11 (37 years ago)
Launch vehicle
Unknown
Launch site
French Guiana (FRGUI)
Object type
Payload
Rocket body
Debris
Shape & HBR
Unknown shape, 1.1 m
Radar Cross Section
Medium (>0.1 m² and <1 m²)

Expand to show TLE details & history
Last TLE update: 1 day ago

TLE from 1 day ago
0 ARIANE 44LP DEB
1 26812U 88109P   26034.67427336 -.00000178  00000-0  00000-0 0  9995
2 26812   6.2623 212.1044 7021271 128.1217 352.6739  2.21747849227231
Epoch: 2026-02-03T16:10Z
TLE epoch observation values (Epoch: 2026-02-03T16:10:57.218Z)
Latitude
6.13027°
Longitude
-87.70897°
Altitude
2,345.124 km
Speed
8.68 km/s
True Right ascension
19h 15m 31s
True Declination
6° 06' 02"
Sunlit
Object was in daylight at epoch
Visualization orbit readout
Latitude
Unknown
Longitude
Unknown
Altitude
Unknown
Speed
Unknown
Apparent Right ascension
Unknown
Apparent Declination
Unknown
Sunlit
N/A
Visualization observer readout
Local Sidereal Time
06:09:10
Azimuth
Unknown
Elevation
Unknown
Doppler factor
Unknown
Orbital elements
Apogee altitude
35,911.973 km
Perigee altitude
1,022.649 km
Semi-major axis
24,845.448 km
Eccentricity
0.70213
Inclination
6.2623°
RAAN
212.1044°
Arg. of periapsis
128.1217°
True anomaly
307.87414°
Mean anomaly
352.6739°
Eccentric anomaly
336.87347°
Mean motion
0.55421 °/min
Orbital period
649.58 mins
BSTAR
0
Loading maneuver chart data...
Computing Atmospheric mass density...
Loading historical data...
Loading historical data...
Loading historical data...
Loading historical data...
Loading historical data...
Loading historical data...
Loading historical data...

Documentation

Showing up to 5 results
|